Togiak, AK

9:06 AM AKDT on June 29, 2017 (GMT -0800)
Togiak

Weather History for PATG - July, 2013

Change the Weather History Date:

Thursday, July 11, 2013

  Actual Average Record
Temperature  
Mean Temperature 56 °F -  
Max Temperature 69 °F 57 °F 71 °F (1998)
Min Temperature 44 °F 45 °F 41 °F (1999)
Degree Days  
Heating Degree Days 8    
Growing Degree Days 6 (Base 50)    
Moisture  
Dew Point 50 °F    
Average Humidity 81    
Maximum Humidity 100    
Minimum Humidity 46    
Precipitation  
Precipitation 0.05 in - - ()
Sea Level Pressure  
Sea Level Pressure 29.98 in    
Wind  
Wind Speed 8 mph (WSW)    
Max Wind Speed 13 mph    
Max Gust Speed -    
Visibility 9 miles    
Events      
Averages and records for this station are not official NWS values.
T = Trace of Precipitation, MM = Missing Value Source: NWS Daily Summary

Daily Weather History Graph

Daily Weather History Graph

Search for Another Location

Airport or City:

Trip Planner

Search our weather history database for the weather conditions in past years. The results will help you decide how hot, cold, wet, or windy it might be!

Date:

Astronomy

Jul. 11, 2013 Rise Set
Actual Time 5:47 AM AKDT 11:45 PM AKDT
Civil Twilight 4:33 AM AKDT 12:58 AM AKDT
Nautical Twilight Sun does not set Sun does not set
Astronomical Twilight Sun does not set Sun does not set
Moon 10:26 AM AKDT (7/11) No Moon Set
Length of Visible Light 20h 25m
Length of Day
17h 57m
Waxing Crescent, 11% of the Moon is Illuminated
Jul 11
Waxing Crescent
Jul 15
First Quarter
Jul 22
Full
Jul 29
Last Quarter
Aug 6
New

Hourly Weather History & Observations

Time (AKDT) Temp. Windchill Dew Point Humidity Pressure Visibility Wind Dir Wind Speed Gust Speed Precip Events Conditions
12:16 AM 53.6 °F - 51.8 °F 94% 30.04 in 10.0 mi SSW 8.1 mph - N/A   Clear
12:36 AM 53.6 °F - 50.0 °F 88% 30.05 in 10.0 mi SW 9.2 mph - N/A   Clear
12:56 AM 53.6 °F - 50.0 °F 88% 30.05 in 10.0 mi SW 4.6 mph - N/A   Clear
1:16 AM 53.6 °F - 51.8 °F 94% 30.05 in 10.0 mi SSW 5.8 mph - N/A   Clear
1:36 AM 53.6 °F - 50.0 °F 88% 30.04 in 10.0 mi SW 3.5 mph - N/A   Clear
1:56 AM 51.8 °F - 48.2 °F 88% 30.04 in 10.0 mi North 4.6 mph - N/A   Clear
2:16 AM 46.4 °F 43.5 °F 44.6 °F 93% 30.04 in 4.0 mi North 5.8 mph - N/A   Partly Cloudy
2:36 AM 44.6 °F 41.4 °F 44.6 °F 100% 30.04 in 0.2 mi NNE 5.8 mph - N/A   Overcast
2:56 AM 46.4 °F 43.5 °F 44.6 °F 93% 30.04 in 10.0 mi NE 5.8 mph - N/A   Partly Cloudy
3:16 AM 44.6 °F 41.4 °F 44.6 °F 100% 30.04 in 0.5 mi North 5.8 mph - N/A   Mostly Cloudy
3:36 AM 44.6 °F 40.7 °F 44.6 °F 100% 30.04 in 6.0 mi North 6.9 mph - N/A   Partly Cloudy
3:56 AM 44.6 °F 40.7 °F 42.8 °F 93% 30.03 in 0.5 mi North 6.9 mph - N/A   Unknown
4:16 AM 44.6 °F 39.7 °F 44.6 °F 100% 30.03 in 2.0 mi NNE 9.2 mph - N/A   Clear
4:36 AM 44.6 °F 39.7 °F 44.6 °F 100% 30.03 in 10.0 mi North 9.2 mph - N/A   Clear
4:56 AM 44.6 °F 40.2 °F 44.6 °F 100% 30.02 in 8.0 mi North 8.1 mph - N/A   Clear
5:16 AM 44.6 °F 39.7 °F 42.8 °F 93% 30.02 in 1.0 mi North 9.2 mph - N/A   Mostly Cloudy
5:36 AM 44.6 °F 39.2 °F 44.6 °F 100% 30.02 in 10.0 mi North 10.4 mph - N/A   Partly Cloudy
5:56 AM 44.6 °F 39.2 °F 44.6 °F 100% 30.01 in 10.0 mi North 10.4 mph - N/A   Clear
6:16 AM 46.4 °F 42.4 °F 44.6 °F 93% 30.01 in 10.0 mi North 8.1 mph - N/A   Clear
6:36 AM 46.4 °F 41.5 °F 46.4 °F 100% 30.00 in 10.0 mi North 10.4 mph - N/A   Clear
6:56 AM 48.2 °F - 46.4 °F 93% 30.00 in 10.0 mi North 10.4 mph - N/A   Clear
7:16 AM 48.2 °F - 46.4 °F 93% 30.00 in 10.0 mi North 12.7 mph - N/A   Clear
7:36 AM 48.2 °F - 46.4 °F 93% 29.99 in 10.0 mi North 11.5 mph - N/A   Clear
7:56 AM 48.2 °F - 46.4 °F 93% 29.99 in 10.0 mi North 12.7 mph - N/A   Clear
8:16 AM 50.0 °F - 48.2 °F 94% 29.99 in 10.0 mi North 12.7 mph - N/A   Clear
8:36 AM 51.8 °F - 48.2 °F 88% 29.99 in 10.0 mi North 11.5 mph - N/A   Clear
8:56 AM 53.6 °F - 48.2 °F 82% 29.99 in 10.0 mi North 12.7 mph - N/A   Clear
9:16 AM 55.4 °F - 50.0 °F 82% 29.98 in 10.0 mi NNE 10.4 mph - N/A   Clear
9:36 AM 57.2 °F - 50.0 °F 77% 29.98 in 10.0 mi NNE 9.2 mph - N/A   Clear
9:56 AM 57.2 °F - 51.8 °F 82% 29.98 in 10.0 mi East 3.5 mph - N/A   Clear
10:16 AM 57.2 °F - 51.8 °F 82% 29.98 in 10.0 mi SSE 3.5 mph - N/A   Clear
10:36 AM 59.0 °F - 53.6 °F 82% 29.98 in 10.0 mi South 3.5 mph - N/A   Clear
10:56 AM 57.2 °F - 51.8 °F 82% 29.97 in 10.0 mi SSW 4.6 mph - N/A   Clear
11:16 AM 59.0 °F - 51.8 °F 77% 29.97 in 10.0 mi SSW 4.6 mph - N/A   Clear
11:36 AM 60.8 °F - 53.6 °F 77% 29.97 in 10.0 mi South 4.6 mph - N/A   Clear
11:56 AM 59.0 °F - 53.6 °F 82% 29.96 in 10.0 mi SSW 6.9 mph - N/A   Clear
12:16 PM 57.2 °F - 53.6 °F 88% 29.96 in 10.0 mi SSW 6.9 mph - N/A   Clear
12:36 PM 60.8 °F - 53.6 °F 77% 29.96 in 10.0 mi SW 8.1 mph - N/A   Clear
12:56 PM 59.0 °F - 53.6 °F 82% 29.96 in 10.0 mi SW 6.9 mph - N/A   Clear
1:16 PM 59.0 °F - 55.4 °F 88% 29.96 in 10.0 mi SSW 9.2 mph - 0.05 in   Partly Cloudy
1:36 PM 60.8 °F - 55.4 °F 82% 29.95 in 10.0 mi SSW 11.5 mph - 0.05 in   Clear
1:56 PM 59.0 °F - 55.4 °F 88% 29.95 in 10.0 mi SW 11.5 mph - 0.05 in   Clear
2:16 PM 60.8 °F - 55.4 °F 82% 29.95 in 10.0 mi SW 12.7 mph - N/A   Clear
2:36 PM 60.8 °F - 55.4 °F 82% 29.95 in 10.0 mi SW 12.7 mph - N/A   Clear
2:56 PM 62.6 °F - 55.4 °F 77% 29.94 in 10.0 mi SW 11.5 mph - N/A   Clear
3:16 PM 64.4 °F - 55.4 °F 73% 29.94 in 10.0 mi SW 11.5 mph - N/A   Clear
3:36 PM 62.6 °F - 55.4 °F 77% 29.94 in 10.0 mi SW 10.4 mph - N/A   Clear
3:56 PM 64.4 °F - 53.6 °F 68% 29.93 in 10.0 mi SW 10.4 mph - N/A   Clear
4:16 PM 64.4 °F - 53.6 °F 68% 29.93 in 10.0 mi SW 8.1 mph - N/A   Clear
4:36 PM 66.2 °F - 53.6 °F 64% 29.93 in 10.0 mi SW 9.2 mph - N/A   Clear
4:56 PM 66.2 °F - 51.8 °F 60% 29.93 in 10.0 mi SW 9.2 mph - N/A   Clear
5:16 PM 66.2 °F - 51.8 °F 60% 29.92 in 10.0 mi SW 9.2 mph - N/A   Clear
5:36 PM 66.2 °F - 53.6 °F 64% 29.92 in 10.0 mi SW 10.4 mph - N/A   Clear
5:56 PM 66.2 °F - 51.8 °F 60% 29.92 in 10.0 mi SW 9.2 mph - N/A   Clear
6:16 PM 66.2 °F - 51.8 °F 60% 29.92 in 10.0 mi SW 8.1 mph - N/A   Clear
6:36 PM 68.0 °F - 48.2 °F 49% 29.91 in 10.0 mi SW 8.1 mph - N/A   Clear
6:56 PM 68.0 °F - 48.2 °F 49% 29.91 in 10.0 mi SW 6.9 mph - N/A   Clear
7:16 PM 68.0 °F - 48.2 °F 49% 29.91 in 10.0 mi WSW 8.1 mph - N/A   Clear
7:36 PM 69.8 °F - 48.2 °F 46% 29.91 in 10.0 mi WSW 9.2 mph - N/A   Clear
7:56 PM 68.0 °F - 48.2 °F 49% 29.91 in 10.0 mi SW 8.1 mph - N/A   Clear
8:16 PM 69.8 °F - 50.0 °F 49% 29.91 in 10.0 mi SW 8.1 mph - N/A   Clear
8:36 PM 68.0 °F - 51.8 °F 56% 29.90 in 10.0 mi SSW 8.1 mph - N/A   Clear
8:56 PM 66.2 °F - 55.4 °F 68% 29.90 in 10.0 mi SW 8.1 mph - N/A   Clear